sat.trackr.live / text

‹ back to catalog

STARLINK-30081

NORAD 57515 · 2023-113W

PAYLOAD ACTIVE UNKNOWN

§ Identity

Operator
Country
US
Launch date
2023-08-07
Launch site
AFETR
Launch vehicle
Mass (kg)
RCS (m²)

Purposes: comms

External: N2YO · Heavens-Above · Gunter

§ Orbital elements

Epoch: 2026-05-25T03:46:11.629056Z

Period
94.27 min
Inclination
43.0031°
Eccentricity
0.0001244
Mean motion
15.27578621 rev/d
Perigee alt
482.2 km
Apogee alt
483.9 km
Semi-major
6,861.2 km
B*
2.9433e-5
RAAN
303.9123°
Arg perigee
278.3373°
Mean anomaly
81.7338°
Rev number
15,537

§ Raw data

STARLINK-300811 57515U 23113W   26145.15707904  .00000548  00000+0  29433-4 0  99952 57515  43.0031 303.9123 0001244 278.3373  81.7338 15.27578621155376

JSON: /api/v1/satellites/57515 · /tle

For live sub-satellite position, see the globe view (requires WebGL).

§ Visibility from observer

Set your observer location to see the next 7 days of passes ≥ 10°. The values pass through the URL so the page stays shareable.

No JS? Fill the form by hand. The geolocation button needs JavaScript.